FENGYUN 1C DEB, 30494

Orbit data source: Space-Track

FENGYUN 1C DEB, 30494 is space debris in SSO originally from a launch on Mon, 10 May 1999 UTC launched from the Taiyaun Space Center, China (TSC). Fengyun 1C debris stems from the Chinese weather satellite Fengyun-1C, which was intentionally destroyed by a Chinese anti-satellite missile in 2007. This event dramatically increased the amount of space debris, with thousands of trackable fragments posing hazards to satellites and human spaceflight. The Fengyun 1C debris cloud has become a focal point in discussions about space sustainability and the need for international regulations to prevent the creation of new debris.

Loading next visibility...
Identifier
30494, 1999-025AHG
Orbit
SSO
Country
Flag of CNCN / PRC
Related business
Manufacturer
Unknown
Mission
Spacecraft
Bus & Motor
Unknown
Mass
Unknown
Launch date (UTC)
1999-05-10 (27 years ago)
Launch vehicle
Unknown
Launch site
Taiyaun Space Center, China (TSC)
Object type
Payload
Rocket body
Debris
Shape & HBR
Unknown shape, 0.1 m
Radar Cross Section
Small (<0.1 m²)

Expand to show TLE details & history
Last TLE update: 3 days ago

TLE from 3 days ago
0 FENGYUN 1C DEB
1 30494U 99025AHG 26252.06331737  .00000865  00000-0  76893-3 0  9997
2 30494  99.2609 286.9764 0185470 225.4657 133.1218 13.80073030982143
Epoch: 2026-09-09T01:31Z
TLE epoch observation values (Epoch: 2026-09-09T01:31:10.620Z)
Latitude
-0.00007°
Longitude
-83.9386°
Altitude
1,060.885 km
Speed
7.274 km/s
True Right ascension
19h 07m 54s
True Declination
0° 00' 00"
Sunlit
Object was in daylight at epoch
Visualization orbit readout
Latitude
Unknown
Longitude
Unknown
Altitude
Unknown
Speed
Unknown
Apparent Right ascension
Unknown
Apparent Declination
Unknown
Sunlit
N/A
Visualization observer readout
Local Sidereal Time
13:17:50
Azimuth
Unknown
Elevation
Unknown
Doppler factor
Unknown
Orbital elements
Apogee altitude
1,096.982 km
Perigee altitude
824.749 km
Semi-major axis
7,339.002 km
Eccentricity
0.01855
Inclination
99.2609°
RAAN
286.9764°
Arg. of periapsis
225.4657°
True anomaly
134.64869°
Mean anomaly
133.1218°
Eccentric anomaly
133.88766°
Mean motion
3.45213 °/min
Orbital period
104.28 mins
BSTAR
0.00076893
Loading maneuver chart data...
Computing Atmospheric mass density...
Loading historical data...
Loading historical data...
Loading historical data...
Loading historical data...
Loading historical data...
Loading historical data...
Loading historical data...

Documentation

Showing up to 5 results
|